Time,TemperatureF,DewpointF,PressureIn,WindDirection,WindDirectionDegrees,WindSpeedMPH,WindSpeedGustMPH,Humidity,HourlyPrecipIn,Conditions,Clouds,dailyrainin,SoftwareType,DateUTC
2013-05-29 00:03:00,76.0,-99.9,30.11,ENE,69,2.0,3.0,-999,-99.99,,,-99.99,,2013-05-29 10:03:00,
2013-05-29 00:12:00,76.0,-99.9,30.10,North,-999,-999.0,-999.0,-999,-99.99,,,-99.99,,2013-05-29 10:12:00,
2013-05-29 00:22:00,75.0,-99.9,30.10,North,-999,-999.0,-999.0,-999,-99.99,,,-99.99,,2013-05-29 10:22:00,
2013-05-29 00:33:00,75.0,-99.9,30.09,NNW,341,1.0,3.0,-999,-99.99,,,-99.99,,2013-05-29 10:33:00,
2013-05-29 00:42:00,75.0,-99.9,30.09,NNE,23,0.0,1.0,-999,-99.99,,,-99.99,,2013-05-29 10:42:00,
2013-05-29 00:53:00,75.0,-99.9,30.09,NE,54,-999.0,2.0,-999,-99.99,,,-99.99,,2013-05-29 10:53:00,
2013-05-29 01:02:00,74.0,-99.9,30.09,West,273,2.0,3.0,-999,-99.99,,,-99.99,,2013-05-29 11:02:00,
2013-05-29 01:12:00,74.0,-99.9,30.09,WNW,296,2.0,3.0,-999,-99.99,,,-99.99,,2013-05-29 11:12:00,
2013-05-29 01:22:00,74.0,-99.9,30.09,NNW,348,2.0,4.0,-999,-99.99,,,-99.99,,2013-05-29 11:22:00,
2013-05-29 01:32:00,74.0,-99.9,30.08,NNW,333,1.0,1.0,-999,-99.99,,,-99.99,,2013-05-29 11:32:00,
2013-05-29 01:42:00,74.0,-99.9,30.08,NNW,334,0.0,1.0,-999,-99.99,,,-99.99,,2013-05-29 11:42:00,
2013-05-29 01:52:00,74.0,-99.9,30.08,NNW,343,2.0,2.0,-999,-99.99,,,-99.99,,2013-05-29 11:52:00,
2013-05-29 02:01:00,74.0,-99.9,30.08,NW,310,0.0,1.0,-999,-99.99,,,-99.99,,2013-05-29 12:01:00,
2013-05-29 02:11:00,74.0,-99.9,30.07,WSW,249,1.0,2.0,-999,-99.99,,,-99.99,,2013-05-29 12:11:00,
2013-05-29 02:22:00,74.0,-99.9,30.07,North,350,2.0,3.0,-999,-99.99,,,-99.99,,2013-05-29 12:22:00,
2013-05-29 02:32:00,74.0,-99.9,30.07,North,-999,-999.0,-999.0,-999,-99.99,,,-99.99,,2013-05-29 12:32:00,
2013-05-29 02:42:00,73.0,-99.9,30.06,ENE,70,-999.0,2.0,-999,-99.99,,,-99.99,,2013-05-29 12:42:00,
2013-05-29 02:52:00,74.0,-99.9,30.06,ENE,57,2.0,3.0,-999,-99.99,,,-99.99,,2013-05-29 12:52:00,
2013-05-29 03:02:00,74.0,-99.9,30.06,NE,42,-999.0,2.0,-999,-99.99,,,-99.99,,2013-05-29 13:02:00,
2013-05-29 03:11:00,74.0,-99.9,30.06,North,-999,-999.0,-999.0,-999,-99.99,,,-99.99,,2013-05-29 13:11:00,
2013-05-29 03:22:00,74.0,-99.9,30.06,West,280,0.0,2.0,-999,-99.99,,,-99.99,,2013-05-29 13:22:00,
2013-05-29 03:32:00,73.0,-99.9,30.06,NNW,345,1.0,2.0,-999,-99.99,,,-99.99,,2013-05-29 13:32:00,
2013-05-29 03:42:00,73.0,-99.9,30.05,NE,38,-999.0,0.0,-999,-99.99,,,-99.99,,2013-05-29 13:42:00,
2013-05-29 03:53:00,73.0,-99.9,30.05,NNW,343,2.0,3.0,-999,-99.99,,,-99.99,,2013-05-29 13:53:00,
2013-05-29 04:02:00,73.0,-99.9,30.05,ESE,113,0.0,2.0,-999,-99.99,,,-99.99,,2013-05-29 14:02:00,
2013-05-29 04:11:00,73.0,-99.9,30.05,North,-999,-999.0,-999.0,-999,-99.99,,,-99.99,,2013-05-29 14:11:00,
2013-05-29 04:22:00,73.0,-99.9,30.04,North,-999,-999.0,-999.0,-999,-99.99,,,-99.99,,2013-05-29 14:22:00,
2013-05-29 04:32:00,73.0,-99.9,30.04,NE,50,0.0,2.0,-999,-99.99,,,-99.99,,2013-05-29 14:32:00,
2013-05-29 04:42:00,73.0,-99.9,30.05,NNW,348,1.0,2.0,-999,-99.99,,,-99.99,,2013-05-29 14:42:00,
2013-05-29 04:52:00,73.0,-99.9,30.05,ENE,67,1.0,1.0,-999,-99.99,,,-99.99,,2013-05-29 14:52:00,
2013-05-29 05:01:00,73.0,-99.9,30.05,SE,142,0.0,2.0,-999,-99.99,,,-99.99,,2013-05-29 15:01:00,
2013-05-29 05:11:00,73.0,-99.9,30.05,SE,142,0.0,2.0,-999,-99.99,,,-99.99,,2013-05-29 15:11:00,
2013-05-29 05:33:00,73.0,-99.9,30.05,ENE,61,2.0,3.0,-999,-99.99,,,-99.99,,2013-05-29 15:33:00,
2013-05-29 05:43:00,73.0,-99.9,30.05,ENE,61,2.0,3.0,-999,-99.99,,,-99.99,,2013-05-29 15:43:00,
2013-05-29 05:53:00,74.0,-99.9,30.05,ENE,58,0.0,2.0,-999,-99.99,,,-99.99,,2013-05-29 15:53:00,
2013-05-29 06:03:00,73.0,-99.9,30.05,ENE,65,1.0,2.0,-999,-99.99,,,-99.99,,2013-05-29 16:03:00,
2013-05-29 06:13:00,74.0,-99.9,30.05,NE,54,3.0,4.0,-999,-99.99,,,-99.99,,2013-05-29 16:13:00,
2013-05-29 06:22:00,74.0,-99.9,30.05,NE,52,2.0,3.0,-999,-99.99,,,-99.99,,2013-05-29 16:22:00,
2013-05-29 06:33:00,74.0,-99.9,30.06,North,-999,-999.0,-999.0,-999,-99.99,,,-99.99,,2013-05-29 16:33:00,
2013-05-29 06:42:00,74.0,-99.9,30.06,NE,45,1.0,1.0,-999,-99.99,,,-99.99,,2013-05-29 16:42:00,
2013-05-29 06:52:00,74.0,-99.9,30.06,SW,215,-999.0,1.0,-999,-99.99,,,-99.99,,2013-05-29 16:52:00,
2013-05-29 07:02:00,74.0,-99.9,30.07,North,-999,-999.0,-999.0,-999,-99.99,,,-99.99,,2013-05-29 17:02:00,
2013-05-29 07:12:00,74.0,-99.9,30.07,North,-999,-999.0,-999.0,-999,-99.99,,,-99.99,,2013-05-29 17:12:00,
2013-05-29 07:22:00,74.0,-99.9,30.07,North,-999,-999.0,-999.0,-999,-99.99,,,-99.99,,2013-05-29 17:22:00,
2013-05-29 07:33:00,75.0,-99.9,30.07,NE,47,0.0,1.0,-999,-99.99,,,-99.99,,2013-05-29 17:33:00,
2013-05-29 07:43:00,75.0,-99.9,30.07,NNW,335,-999.0,2.0,-999,-99.99,,,-99.99,,2013-05-29 17:43:00,
2013-05-29 07:52:00,76.0,-99.9,30.07,NW,317,2.0,2.0,-999,-99.99,,,-99.99,,2013-05-29 17:52:00,
2013-05-29 08:02:00,77.0,-99.9,30.07,NNW,332,2.0,3.0,-999,-99.99,,,-99.99,,2013-05-29 18:02:00,
2013-05-29 08:13:00,77.0,-99.9,30.08,NNW,332,2.0,4.0,-999,-99.99,,,-99.99,,2013-05-29 18:13:00,
2013-05-29 08:22:00,77.0,-99.9,30.08,NNW,332,2.0,3.0,-999,-99.99,,,-99.99,,2013-05-29 18:22:00,
2013-05-29 08:32:00,77.0,-99.9,30.08,West,259,1.0,2.0,-999,-99.99,,,-99.99,,2013-05-29 18:32:00,
2013-05-29 08:42:00,77.0,-99.9,30.08,West,259,1.0,2.0,-999,-99.99,,,-99.99,,2013-05-29 18:42:00,
2013-05-29 08:52:00,78.0,-99.9,30.08,South,174,2.0,4.0,-999,-99.99,,,-99.99,,2013-05-29 18:52:00,
2013-05-29 09:02:00,79.0,-99.9,30.08,South,190,1.0,5.0,-999,-99.99,,,-99.99,,2013-05-29 19:02:00,
2013-05-29 09:12:00,78.0,-99.9,30.08,SW,225,4.0,6.0,-999,-99.99,,,-99.99,,2013-05-29 19:12:00,
2013-05-29 09:22:00,79.0,-99.9,30.08,SSE,156,2.0,6.0,-999,-99.99,,,-99.99,,2013-05-29 19:22:00,
2013-05-29 09:32:00,79.0,-99.9,30.08,SSE,164,3.0,5.0,-999,-99.99,,,-99.99,,2013-05-29 19:32:00,
2013-05-29 09:44:00,79.0,-99.9,30.09,South,190,2.0,6.0,-999,-99.99,,,-99.99,,2013-05-29 19:44:00,
2013-05-29 09:53:00,79.0,-99.9,30.08,SSW,201,3.0,6.0,-999,-99.99,,,-99.99,,2013-05-29 19:53:00,
2013-05-29 10:03:00,78.0,-99.9,30.09,SW,215,6.0,7.0,-999,-99.99,,,-99.99,,2013-05-29 20:03:00,
2013-05-29 10:12:00,78.0,-99.9,30.09,SW,216,6.0,9.0,-999,-99.99,,,-99.99,,2013-05-29 20:12:00,
2013-05-29 10:23:00,78.0,-99.9,30.09,SW,221,7.0,9.0,-999,-99.99,,,-99.99,,2013-05-29 20:23:00,
2013-05-29 10:33:00,78.0,-99.9,30.09,SW,222,7.0,10.0,-999,-99.99,,,-99.99,,2013-05-29 20:33:00,
2013-05-29 10:42:00,78.0,-99.9,30.09,SW,215,7.0,9.0,-999,-99.99,,,-99.99,,2013-05-29 20:42:00,
2013-05-29 10:53:00,78.0,-99.9,30.09,SW,216,7.0,11.0,-999,-99.99,,,-99.99,,2013-05-29 20:53:00,
2013-05-29 11:02:00,78.0,-99.9,30.09,SW,222,6.0,9.0,-999,-99.99,,,-99.99,,2013-05-29 21:02:00,
2013-05-29 11:12:00,78.0,-99.9,30.09,SW,217,7.0,9.0,-999,-99.99,,,-99.99,,2013-05-29 21:12:00,
2013-05-29 11:22:00,79.0,-99.9,30.09,SSW,212,6.0,10.0,-999,-99.99,,,-99.99,,2013-05-29 21:22:00,
2013-05-29 11:33:00,79.0,-99.9,30.09,SW,214,5.0,10.0,-999,-99.99,,,-99.99,,2013-05-29 21:33:00,
2013-05-29 11:44:00,79.0,-99.9,30.08,SW,215,8.0,11.0,-999,-99.99,,,-99.99,,2013-05-29 21:44:00,
2013-05-29 11:53:00,79.0,-99.9,30.08,SSW,206,7.0,12.0,-999,-99.99,,,-99.99,,2013-05-29 21:53:00,
2013-05-29 12:03:00,79.0,-99.9,30.08,SSW,211,7.0,11.0,-999,-99.99,,,-99.99,,2013-05-29 22:03:00,
2013-05-29 12:13:00,79.0,-99.9,30.07,SSW,205,8.0,10.0,-999,-99.99,,,-99.99,,2013-05-29 22:13:00,
2013-05-29 12:23:00,79.0,-99.9,30.07,SSW,205,7.0,10.0,-999,-99.99,,,-99.99,,2013-05-29 22:23:00,
2013-05-29 12:34:00,80.0,-99.9,30.07,SSW,195,6.0,11.0,-999,-99.99,,,-99.99,,2013-05-29 22:34:00,
2013-05-29 12:43:00,80.0,-99.9,30.07,SW,214,8.0,10.0,-999,-99.99,,,-99.99,,2013-05-29 22:43:00,
2013-05-29 12:53:00,80.0,-99.9,30.07,South,183,7.0,14.0,-999,-99.99,,,-99.99,,2013-05-29 22:53:00,
2013-05-29 13:02:00,80.0,-99.9,30.06,SSW,196,8.0,13.0,-999,-99.99,,,-99.99,,2013-05-29 23:02:00,
2013-05-29 13:12:00,81.0,-99.9,30.06,SSE,164,6.0,13.0,-999,-99.99,,,-99.99,,2013-05-29 23:12:00,
2013-05-29 13:22:00,80.0,-99.9,30.06,South,179,8.0,12.0,-999,-99.99,,,-99.99,,2013-05-29 23:22:00,
2013-05-29 13:33:00,81.0,-99.9,30.06,SSE,149,5.0,13.0,-999,-99.99,,,-99.99,,2013-05-29 23:33:00,
2013-05-29 13:43:00,81.0,-99.9,30.06,SSE,159,7.0,13.0,-999,-99.99,,,-99.99,,2013-05-29 23:43:00,
2013-05-29 13:53:00,82.0,-99.9,30.05,SSE,167,6.0,12.0,-999,-99.99,,,-99.99,,2013-05-29 23:53:00,
2013-05-29 14:02:00,82.0,-99.9,30.05,SSE,166,8.0,13.0,-999,-99.99,,,-99.99,,2013-05-30 00:02:00,
2013-05-29 14:12:00,82.0,-99.9,30.05,South,180,9.0,15.0,-999,-99.99,,,-99.99,,2013-05-30 00:12:00,
2013-05-29 14:22:00,82.0,-99.9,30.04,South,172,6.0,12.0,-999,-99.99,,,-99.99,,2013-05-30 00:22:00,
2013-05-29 14:32:00,82.0,-99.9,30.04,South,177,7.0,12.0,-999,-99.99,,,-99.99,,2013-05-30 00:32:00,
2013-05-29 14:42:00,82.0,-99.9,30.04,South,175,8.0,12.0,-999,-99.99,,,-99.99,,2013-05-30 00:42:00,
2013-05-29 14:52:00,83.0,-99.9,30.04,SSE,168,5.0,12.0,-999,-99.99,,,-99.99,,2013-05-30 00:52:00,
2013-05-29 15:02:00,82.0,-99.9,30.04,South,176,7.0,13.0,-999,-99.99,,,-99.99,,2013-05-30 01:02:00,
2013-05-29 15:11:00,82.0,-99.9,30.04,SSE,163,6.0,11.0,-999,-99.99,,,-99.99,,2013-05-30 01:11:00,
2013-05-29 15:22:00,81.0,-99.9,30.04,SSE,164,6.0,12.0,-999,-99.99,,,-99.99,,2013-05-30 01:22:00,
2013-05-29 15:32:00,81.0,-99.9,30.03,SSE,168,5.0,12.0,-999,-99.99,,,-99.99,,2013-05-30 01:32:00,
2013-05-29 15:42:00,80.0,-99.9,30.04,SE,136,6.0,9.0,-999,-99.99,,,-99.99,,2013-05-30 01:42:00,
2013-05-29 15:52:00,78.0,-99.9,30.04,North,356,5.0,10.0,-999,-99.99,,,-99.99,,2013-05-30 01:52:00,
2013-05-29 16:02:00,76.0,-99.9,30.04,NNW,327,9.0,15.0,-999,-99.99,,,-99.99,,2013-05-30 02:02:00,
2013-05-29 16:11:00,76.0,-99.9,30.04,NNW,333,6.0,10.0,-999,-99.99,,,-99.99,,2013-05-30 02:11:00,
2013-05-29 16:22:00,76.0,-99.9,30.04,North,5,6.0,9.0,-999,-99.99,,,-99.99,,2013-05-30 02:22:00,
2013-05-29 16:32:00,75.0,-99.9,30.04,NNW,332,5.0,7.0,-999,-99.99,,,-99.99,,2013-05-30 02:32:00,
2013-05-29 16:42:00,75.0,-99.9,30.04,NNW,332,5.0,7.0,-999,-99.99,,,-99.99,,2013-05-30 02:42:00,
2013-05-29 16:52:00,75.0,-99.9,30.04,NNW,332,5.0,7.0,-999,-99.99,,,-99.99,,2013-05-30 02:52:00,
2013-05-29 17:02:00,75.0,-99.9,30.04,SW,222,3.0,4.0,-999,-99.99,,,-99.99,,2013-05-30 03:02:00,
2013-05-29 17:12:00,75.0,-99.9,30.04,SW,230,4.0,4.0,-999,-99.99,,,-99.99,,2013-05-30 03:12:00,
2013-05-29 17:22:00,75.0,-99.9,30.04,SSW,205,5.0,7.0,-999,-99.99,,,-99.99,,2013-05-30 03:22:00,
2013-05-29 17:33:00,76.0,-99.9,30.04,SSW,211,5.0,7.0,-999,-99.99,,,-99.99,,2013-05-30 03:33:00,
2013-05-29 17:43:00,76.0,-99.9,30.05,WSW,252,4.0,6.0,-999,-99.99,,,-99.99,,2013-05-30 03:43:00,
2013-05-29 17:53:00,76.0,-99.9,30.05,North,350,5.0,6.0,-999,-99.99,,,-99.99,,2013-05-30 03:53:00,
2013-05-29 18:03:00,75.0,-99.9,30.05,NW,323,3.0,5.0,-999,-99.99,,,-99.99,,2013-05-30 04:03:00,
2013-05-29 18:13:00,75.0,-99.9,30.05,NW,325,4.0,5.0,-999,-99.99,,,-99.99,,2013-05-30 04:13:00,
2013-05-29 18:23:00,75.0,-99.9,30.05,NW,307,3.0,4.0,-999,-99.99,,,-99.99,,2013-05-30 04:23:00,
2013-05-29 18:33:00,75.0,-99.9,30.05,WNW,301,3.0,4.0,-999,-99.99,,,-99.99,,2013-05-30 04:33:00,
2013-05-29 18:42:00,76.0,-99.9,30.05,NNW,341,4.0,6.0,-999,-99.99,,,-99.99,,2013-05-30 04:42:00,
2013-05-29 18:53:00,77.0,-99.9,30.05,North,351,2.0,6.0,-999,-99.99,,,-99.99,,2013-05-30 04:53:00,
2013-05-29 19:02:00,77.0,-99.9,30.05,ENE,63,4.0,7.0,-999,-99.99,,,-99.99,,2013-05-30 05:02:00,
2013-05-29 19:12:00,77.0,-99.9,30.05,ENE,63,4.0,8.0,-999,-99.99,,,-99.99,,2013-05-30 05:12:00,
2013-05-29 19:22:00,77.0,-99.9,30.05,NE,55,4.0,7.0,-999,-99.99,,,-99.99,,2013-05-30 05:22:00,
2013-05-29 19:32:00,77.0,-99.9,30.05,NE,42,4.0,6.0,-999,-99.99,,,-99.99,,2013-05-30 05:32:00,
2013-05-29 19:43:00,77.0,-99.9,30.05,NE,54,2.0,5.0,-999,-99.99,,,-99.99,,2013-05-30 05:43:00,
2013-05-29 19:52:00,77.0,-99.9,30.06,NNW,340,1.0,3.0,-999,-99.99,,,-99.99,,2013-05-30 05:52:00,
2013-05-29 20:01:00,77.0,-99.9,30.06,WNW,301,3.0,4.0,-999,-99.99,,,-99.99,,2013-05-30 06:01:00,
2013-05-29 20:12:00,77.0,-99.9,30.07,NW,317,0.0,4.0,-999,-99.99,,,-99.99,,2013-05-30 06:12:00,
2013-05-29 20:22:00,77.0,-99.9,30.07,WSW,255,1.0,2.0,-999,-99.99,,,-99.99,,2013-05-30 06:22:00,
2013-05-29 20:32:00,77.0,-99.9,30.07,NW,308,1.0,2.0,-999,-99.99,,,-99.99,,2013-05-30 06:32:00,
2013-05-29 20:42:00,77.0,-99.9,30.07,North,11,1.0,2.0,-999,-99.99,,,-99.99,,2013-05-30 06:42:00,
2013-05-29 20:52:00,77.0,-99.9,30.07,NNW,345,2.0,3.0,-999,-99.99,,,-99.99,,2013-05-30 06:52:00,
2013-05-29 21:02:00,77.0,-99.9,30.08,North,6,2.0,3.0,-999,-99.99,,,-99.99,,2013-05-30 07:02:00,
2013-05-29 21:12:00,77.0,-99.9,30.08,NE,51,0.0,2.0,-999,-99.99,,,-99.99,,2013-05-30 07:12:00,
2013-05-29 21:22:00,77.0,-99.9,30.08,NNE,28,1.0,2.0,-999,-99.99,,,-99.99,,2013-05-30 07:22:00,
2013-05-29 21:32:00,77.0,-99.9,30.08,NNE,27,1.0,1.0,-999,-99.99,,,-99.99,,2013-05-30 07:32:00,
2013-05-29 21:42:00,77.0,-99.9,30.08,NNE,32,2.0,3.0,-999,-99.99,,,-99.99,,2013-05-30 07:42:00,
2013-05-29 21:52:00,77.0,-99.9,30.08,NNE,33,1.0,2.0,-999,-99.99,,,-99.99,,2013-05-30 07:52:00,
2013-05-29 22:02:00,77.0,-99.9,30.08,ENE,57,1.0,2.0,-999,-99.99,,,-99.99,,2013-05-30 08:02:00,
2013-05-29 22:11:00,76.0,-99.9,30.08,ENE,57,1.0,2.0,-999,-99.99,,,-99.99,,2013-05-30 08:11:00,
2013-05-29 22:22:00,76.0,-99.9,30.08,SE,132,1.0,2.0,-999,-99.99,,,-99.99,,2013-05-30 08:22:00,
2013-05-29 22:32:00,76.0,-99.9,30.09,ENE,59,3.0,6.0,-999,-99.99,,,-99.99,,2013-05-30 08:32:00,
2013-05-29 22:42:00,76.0,-99.9,30.09,ESE,106,2.0,3.0,-999,-99.99,,,-99.99,,2013-05-30 08:42:00,
2013-05-29 22:53:00,76.0,-99.9,30.09,NE,50,3.0,4.0,-999,-99.99,,,-99.99,,2013-05-30 08:53:00,
2013-05-29 23:01:00,76.0,-99.9,30.09,NE,46,4.0,6.0,-999,-99.99,,,-99.99,,2013-05-30 09:01:00,
2013-05-29 23:11:00,76.0,-99.9,30.09,ENE,68,3.0,5.0,-999,-99.99,,,-99.99,,2013-05-30 09:11:00,
2013-05-29 23:22:00,76.0,-99.9,30.09,NNE,27,2.0,5.0,-999,-99.99,,,-99.99,,2013-05-30 09:22:00,
2013-05-29 23:33:00,76.0,-99.9,30.09,ENE,61,3.0,5.0,-999,-99.99,,,-99.99,,2013-05-30 09:33:00,
2013-05-29 23:43:00,76.0,-99.9,30.08,ENE,59,3.0,5.0,-999,-99.99,,,-99.99,,2013-05-30 09:43:00,
2013-05-29 23:53:00,76.0,-99.9,30.08,ENE,66,2.0,5.0,-999,-99.99,,,-99.99,,2013-05-30 09:53:00,